Location: Los Ranchitos
(37.9930°N, 122.5425°W)
Time: 07:59:40
(UTC+00:00)

Cosmos 1300 Rocket - Pass Details

Date: 21 September 2020
Orbit: 601 x 627 km, 82.5° (Epoch: 28 October)

Event Time Altitude Azimuth Distance (km) Brightness Sun altitude
Rises 02:50:18 0° 167° (SSE) 2,871 6.8 -8.9°
Reaches altitude 10° 02:52:37 10° 159° (SSE) 1,974 5.9 -9.4°
Maximum altitude 02:56:39 37° 91° (E) 964 4.1 -10.1°
Drops below altitude 10° 03:00:44 10° 24° (NNE) 2,001 6.0 -10.9°
Sets 03:03:06 0° 17° (NNE) 2,915 6.9 -11.4°
